| time (UTC) | temp F | wind direction | speed knots | gust knots | rain 1hr in | rain 24hr in | rain mn in | humidity % | barometer mb |
| 20260906060029 | 71 | 269 | 0.0 | 0.0 | 0.00 | 0.19 | 0.00 | 95 | 1014.1 |
| 20260906054538 | 71 | 119 | 0.0 | 0.0 | 0.00 | 0.19 | 0.00 | 95 | 1014.4 |
| 20260906053032 | 71 | 253 | 0.0 | 0.0 | 0.00 | 0.19 | 0.00 | 95 | 1014.5 |
| 20260906051523 | 71 | 206 | 0.0 | 0.0 | 0.00 | 0.19 | 0.00 | 95 | 1014.7 |
| 20260906050027 | 71 | 279 | 0.0 | 0.9 | 0.00 | 0.19 | 0.00 | 95 | 1014.9 |
| 20260906044528 | 71 | 44 | 0.9 | 1.7 | 0.00 | 0.19 | 0.00 | 96 | 1014.9 |
| 20260906043033 | 71 | 241 | 0.0 | 0.0 | 0.00 | 0.19 | 0.00 | 95 | 1014.6 |
| 20260906041533 | 71 | 241 | 0.0 | 0.0 | 0.00 | 0.19 | 0.00 | 95 | 1014.5 |
| 20260906040023 | 72 | 309 | 0.0 | 0.9 | 0.00 | 0.19 | 0.00 | 95 | 1014.8 |
| 20260906034504 | 72 | 127 | 0.0 | 0.0 | 0.00 | 0.19 | 0.19 | 95 | 1015.2 |
| 20260906033007 | 72 | 311 | 0.0 | 0.0 | 0.00 | 0.19 | 0.19 | 95 | 1015.1 |
| 20260906031510 | 72 | 19 | 0.0 | 0.0 | 0.00 | 0.19 | 0.19 | 95 | 1014.7 |
| 20260906030008 | 72 | 36 | 0.0 | 0.0 | 0.00 | 0.19 | 0.19 | 95 | 1014.7 |
| 20260906024510 | 72 | 237 | 0.0 | 0.9 | 0.00 | 0.19 | 0.19 | 95 | 1014.9 |
| 20260906023006 | 72 | 151 | 0.0 | 0.0 | 0.00 | 0.19 | 0.19 | 95 | 1015.0 |
| 20260906021508 | 72 | 128 | 0.0 | 0.0 | 0.00 | 0.19 | 0.19 | 95 | 1014.8 |
| 20260906020013 | 72 | 128 | 0.0 | 1.7 | 0.00 | 0.19 | 0.19 | 95 | 1014.7 |
| 20260906014516 | 72 | 240 | 0.0 | 0.9 | 0.00 | 0.19 | 0.19 | 95 | 1014.6 |
| 20260906013017 | 72 | 240 | 0.0 | 0.9 | 0.00 | 0.19 | 0.19 | 94 | 1014.2 |
| 20260906011511 | 73 | 125 | 0.0 | 0.9 | 0.00 | 0.19 | 0.19 | 94 | 1014.3 |
| 20260906010008 | 73 | 125 | 0.0 | 0.9 | 0.00 | 0.19 | 0.19 | 94 | 1014.2 |
| 20260906004515 | 73 | 162 | 0.0 | 0.9 | 0.00 | 0.19 | 0.19 | 93 | 1014.2 |
| 20260906003020 | 73 | 161 | 0.0 | 0.0 | 0.00 | 0.19 | 0.19 | 93 | 1014.0 |
| 20260906001514 | 74 | 166 | 0.0 | 0.9 | 0.00 | 0.19 | 0.19 | 92 | 1014.0 |
| 20260906000012 | 74 | 195 | 0.0 | 0.9 | 0.00 | 0.19 | 0.19 | 91 | 1014.0 |
| 20260905234507 | 75 | 212 | 0.0 | 2.6 | 0.00 | 0.19 | 0.19 | 91 | 1013.6 |
| 20260905233018 | 75 | 255 | 0.9 | 1.7 | 0.00 | 0.19 | 0.19 | 90 | 1013.6 |
| 20260905231516 | 76 | 279 | 0.0 | 0.9 | 0.00 | 0.19 | 0.19 | 89 | 1013.4 |
| 20260905230014 | 77 | 45 | 0.0 | 1.7 | 0.00 | 0.19 | 0.19 | 85 | 1013.4 |
| 20260905224519 | 77 | 283 | 0.0 | 0.9 | 0.00 | 0.19 | 0.19 | 86 | 1013.7 |
| 20260905223008 | 76 | 228 | 0.0 | 1.7 | 0.00 | 0.19 | 0.19 | 88 | 1013.7 |
| 20260905221514 | 76 | 228 | 0.9 | 1.7 | 0.00 | 0.19 | 0.19 | 90 | 1013.6 |
| 20260905220018 | 77 | 135 | 0.9 | 3.5 | 0.00 | 0.19 | 0.19 | 83 | 1013.5 |
| 20260905214515 | 76 | 109 | 0.0 | 0.9 | 0.00 | 0.19 | 0.19 | 85 | 1013.6 |
| 20260905213018 | 75 | 46 | 0.0 | 0.0 | 0.00 | 0.19 | 0.19 | 89 | 1013.9 |
| 20260905211512 | 75 | 287 | 0.0 | 0.0 | 0.00 | 0.19 | 0.19 | 89 | 1014.2 |
| 20260905210014 | 74 | 31 | 0.0 | 0.0 | 0.00 | 0.19 | 0.19 | 90 | 1014.1 |
| 20260905204517 | 74 | 333 | 0.0 | 2.6 | 0.00 | 0.19 | 0.19 | 91 | 1014.1 |
| 20260905203025 | 74 | 30 | 0.9 | 2.6 | 0.00 | 0.19 | 0.19 | 90 | 1014.0 |
| 20260905201524 | 73 | 292 | 0.9 | 1.7 | 0.01 | 0.19 | 0.19 | 91 | 1014.2 |
| 20260905200018 | 73 | 274 | 0.0 | 1.7 | 0.03 | 0.19 | 0.19 | 92 | 1015.1 |
| 20260905194517 | 73 | 27 | 0.0 | 1.7 | 0.17 | 0.19 | 0.19 | 90 | 1015.8 |
| 20260905193028 | 73 | 39 | 0.9 | 2.6 | 0.19 | 0.19 | 0.19 | 89 | 1014.9 |
| 20260905191537 | 73 | 279 | 1.7 | 7.8 | 0.18 | 0.18 | 0.18 | 86 | 1015.4 |
| 20260905190043 | 74 | 240 | 2.6 | 8.7 | 0.16 | 0.16 | 0.16 | 82 | 1015.3 |
| 20260905184536 | 79 | 334 | 4.3 | 13.0 | 0.02 | 0.02 | 0.02 | 77 | 1014.3 |
| 20260905183018 | 93 | 55 | 7.0 | 13.9 | 0.00 | 0.00 | 0.00 | 51 | 1014.3 |
| 20260905181523 | 95 | 35 | 3.5 | 9.6 | 0.00 | 0.00 | 0.00 | 46 | 1014.2 |
| 20260905180027 | 95 | 13 | 1.7 | 4.3 | 0.00 | 0.00 | 0.00 | 47 | 1014.2 |
| 20260905174509 | 96 | 21 | 2.6 | 9.6 | 0.00 | 0.00 | 0.00 | 47 | 1014.5 |
| 20260905173016 | 95 | 316 | 0.9 | 3.5 | 0.00 | 0.00 | 0.00 | 51 | 1014.5 |
| 20260905171520 | 95 | 15 | 4.3 | 7.8 | 0.00 | 0.00 | 0.00 | 49 | 1014.6 |
| 20260905170029 | 95 | 37 | 0.9 | 4.3 | 0.00 | 0.00 | 0.00 | 51 | 1015.0 |
| 20260905164526 | 95 | 291 | 0.9 | 3.5 | 0.00 | 0.00 | 0.00 | 51 | 1015.3 |
| 20260905163009 | 94 | 231 | 0.9 | 3.5 | 0.00 | 0.00 | 0.00 | 55 | 1015.5 |
| 20260905161514 | 93 | 280 | 0.9 | 3.5 | 0.00 | 0.00 | 0.00 | 56 | 1015.6 |
| 20260905160023 | 93 | 158 | 1.7 | 3.5 | 0.00 | 0.00 | 0.00 | 58 | 1015.7 |
| 20260905154526 | 92 | 186 | 0.9 | 2.6 | 0.00 | 0.00 | 0.00 | 59 | 1015.8 |
| 20260905153037 | 91 | 158 | 0.0 | 2.6 | 0.00 | 0.00 | 0.00 | 61 | 1016.0 |
| 20260905151513 | 90 | 196 | 1.7 | 3.5 | 0.00 | 0.00 | 0.00 | 64 | 1016.1 |
| 20260905150016 | 89 | 292 | 0.0 | 1.7 | 0.00 | 0.00 | 0.00 | 66 | 1016.2 |
| 20260905144526 | 88 | 220 | 0.9 | 3.5 | 0.00 | 0.00 | 0.00 | 67 | 1016.2 |
| 20260905143029 | 87 | 259 | 0.9 | 3.5 | 0.00 | 0.00 | 0.00 | 70 | 1016.2 |
| 20260905141542 | 86 | 203 | 0.0 | 2.6 | 0.00 | 0.00 | 0.00 | 71 | 1016.3 |
| 20260905140029 | 85 | 254 | 0.0 | 3.5 | 0.00 | 0.00 | 0.00 | 75 | 1016.5 |
| 20260905134518 | 83 | 236 | 0.9 | 2.6 | 0.00 | 0.00 | 0.00 | 77 | 1016.6 |
| 20260905133023 | 82 | 269 | 0.0 | 1.7 | 0.00 | 0.00 | 0.00 | 80 | 1016.6 |
| 20260905131529 | 80 | 221 | 0.0 | 1.7 | 0.00 | 0.00 | 0.00 | 81 | 1016.6 |
| 20260905130032 | 79 | 231 | 0.0 | 0.9 | 0.00 | 0.00 | 0.00 | 86 | 1016.6 |
| 20260905124532 | 77 | 203 | 0.0 | 0.0 | 0.00 | 0.00 | 0.00 | 89 | 1016.6 |
| 20260905123018 | 74 | 163 | 0.0 | 0.0 | 0.00 | 0.00 | 0.00 | 92 | 1016.5 |
| 20260905121524 | 73 | 165 | 0.0 | 0.0 | 0.00 | 0.00 | 0.00 | 93 | 1016.4 |
| 20260905120031 | 73 | 165 | 0.0 | 0.0 | 0.00 | 0.00 | 0.00 | 94 | 1016.5 |
| 20260905114530 | 72 | 165 | 0.0 | 0.0 | 0.00 | 0.00 | 0.00 | 94 | 1016.3 |
| 20260905113032 | 72 | 337 | 0.0 | 0.0 | 0.00 | 0.00 | 0.00 | 94 | 1016.1 |
| 20260905111525 | 71 | 204 | 0.0 | 0.0 | 0.00 | 0.00 | 0.00 | 95 | 1015.9 |
| 20260905110028 | 71 | 203 | 0.0 | 0.0 | 0.00 | 0.00 | 0.00 | 95 | 1015.8 |
| 20260905104536 | 71 | 169 | 0.0 | 0.0 | 0.00 | 0.00 | 0.00 | 94 | 1015.7 |
| 20260905103037 | 72 | 160 | 0.0 | 0.0 | 0.00 | 0.00 | 0.00 | 95 | 1015.5 |
| 20260905101536 | 72 | 133 | 0.0 | 0.0 | 0.00 | 0.00 | 0.00 | 95 | 1015.4 |
| 20260905100025 | 71 | 133 | 0.0 | 0.0 | 0.00 | 0.00 | 0.00 | 95 | 1015.4 |
| 20260905094527 | 71 | 133 | 0.0 | 0.0 | 0.00 | 0.00 | 0.00 | 94 | 1015.3 |
| 20260905093008 | 72 | 132 | 0.0 | 0.0 | 0.00 | 0.00 | 0.00 | 94 | 1015.3 |
| 20260905091512 | 72 | 132 | 0.0 | 0.0 | 0.00 | 0.00 | 0.00 | 94 | 1015.3 |
| 20260905090019 | 72 | 132 | 0.0 | 0.0 | 0.00 | 0.00 | 0.00 | 94 | 1015.3 |
| 20260905084523 | 72 | 132 | 0.0 | 0.0 | 0.00 | 0.00 | 0.00 | 94 | 1015.5 |
| 20260905083040 | 72 | 132 | 0.0 | 0.0 | 0.00 | 0.00 | 0.00 | 93 | 1015.6 |
| 20260905081511 | 73 | 156 | 0.0 | 0.0 | 0.00 | 0.00 | 0.00 | 93 | 1015.7 |
| 20260905080017 | 73 | 221 | 0.0 | 0.0 | 0.00 | 0.00 | 0.00 | 93 | 1016.0 |
| 20260905074523 | 73 | 221 | 0.0 | 0.0 | 0.00 | 0.00 | 0.00 | 93 | 1016.0 |
| 20260905073029 | 73 | 345 | 0.0 | 0.0 | 0.00 | 0.00 | 0.00 | 93 | 1016.0 |
| 20260905071530 | 73 | 345 | 0.0 | 0.0 | 0.00 | 0.00 | 0.00 | 92 | 1016.0 |
| 20260905070014 | 74 | 345 | 0.0 | 0.0 | 0.00 | 0.00 | 0.00 | 92 | 1016.1 |
| 20260905064516 | 74 | 345 | 0.0 | 0.0 | 0.00 | 0.00 | 0.00 | 91 | 1016.0 |
| 20260905063024 | 75 | 345 | 0.0 | 0.0 | 0.00 | 0.00 | 0.00 | 90 | 1016.2 |
| 20260905061528 | 75 | 345 | 0.0 | 0.0 | 0.00 | 0.00 | 0.00 | 90 | 1016.5 |